This is the latest recevied weather packets stored in our database for station/object K3HM. If no packets are shown the sender has not sent any weather packets the latest 1 day(s).
| Time | Temp. | Humidity | Pressure | Rain* | Wind** | Luminosity | Snow |
|---|---|---|---|---|---|---|---|
| 1778029173 | 16.11° C | 58% | 1011.5 hPa | 0 mm | 0 m/s | 0 W/m² | - |
| 1778028871 | 16.11° C | 56% | 1011.4 hPa | 0 mm | 0.45 m/s, 303° | 0 W/m² | - |
| 1778028566 | 16.67° C | 55% | 1011.4 hPa | 0 mm | 0.45 m/s, 295° | 0 W/m² | - |
| 1778028264 | 16.67° C | 55% | 1011.3 hPa | 0 mm | 0.45 m/s, 332° | 0 W/m² | - |
| 1778027960 | 17.22° C | 54% | 1011.3 hPa | 0 mm | 0.45 m/s, 272° | 0 W/m² | - |
| 1778027656 | 17.78° C | 53% | 1011.4 hPa | 0 mm | 0.45 m/s, 325° | 0 W/m² | - |
| 1778027353 | 17.78° C | 53% | 1011.2 hPa | 0 mm | 0.45 m/s, 302° | 0 W/m² | - |
| 1778027049 | 17.78° C | 51% | 1011.4 hPa | 0 mm | 0.89 m/s, 229° | 1 W/m² | - |
| 1778026744 | 18.33° C | 50% | 1011.3 hPa | 0 mm | 1.34 m/s, 233° | 1 W/m² | - |
| 1778026442 | 18.33° C | 49% | 1011.3 hPa | 0 mm | 1.34 m/s, 236° | 2 W/m² | - |
| 1778026139 | 18.33° C | 48% | 1011.1 hPa | 0 mm | 1.79 m/s, 228° | 2 W/m² | - |
| 1778025837 | 18.33° C | 48% | 1011.3 hPa | 0 mm | 0.89 m/s, 305° | 3 W/m² | - |
| 1778025533 | 18.33° C | 49% | 1011.2 hPa | 0 mm | 0.45 m/s, 180° | 4 W/m² | - |
| 1778025231 | 18.89° C | 49% | 1011.2 hPa | 0 mm | 0.89 m/s, 250° | 7 W/m² | - |
| 1778024928 | 18.89° C | 47% | 1011 hPa | 0 mm | 1.79 m/s, 229° | 10 W/m² | - |
| 1778024626 | 18.89° C | 47% | 1011 hPa | 0 mm | 1.79 m/s, 232° | 12 W/m² | - |
| 1778024322 | 18.89° C | 48% | 1011 hPa | 0 mm | 0.89 m/s, 280° | 13 W/m² | - |
| 1778024020 | 18.89° C | 48% | 1011.2 hPa | 0 mm | 0.89 m/s, 223° | 15 W/m² | - |
| 1778023717 | 18.89° C | 47% | 1011.2 hPa | 0 mm | 1.34 m/s, 217° | 17 W/m² | - |
| 1778023415 | 18.89° C | 46% | 1011.1 hPa | 0 mm | 2.24 m/s, 217° | 24 W/m² | - |
| 1778023111 | 19.44° C | 46% | 1010.8 hPa | 0 mm | 2.68 m/s, 273° | 33 W/m² | - |
| 1778022809 | 19.44° C | 46% | 1011.1 hPa | 0 mm | 2.68 m/s, 237° | 37 W/m² | - |
| 1778022507 | 19.44° C | 45% | 1011.1 hPa | 0 mm | 4.02 m/s, 288° | 36 W/m² | - |
| 1778022204 | 20° C | 47% | 1011.2 hPa | 0 mm | 1.79 m/s, 260° | 43 W/m² | - |
| 1778021900 | 19.44° C | 49% | 1011.1 hPa | 0 mm | 1.34 m/s, 287° | 66 W/m² | - |
* Rain latest hour (hover to see other rain measurements)
** Current wind speed in m/s (hover to see current wind gust speed)